Maple Lake, MN

4:36 PM CST on January 22, 2017 (GMT -0600)
Maple Lake Municipal

Weather History for KMGG - October, 2012

Change the Weather History Date:

Saturday, October 6, 2012

  Actual Average (KSTC) Record (KSTC)
Temperature  
Mean Temperature 36 °F -  
Max Temperature 44 °F 59 °F 85 °F (2007)
Min Temperature 27 °F 36 °F 18 °F (1976)
Degree Days  
Heating Degree Days 29    
Moisture  
Dew Point 26 °F    
Average Humidity 68    
Maximum Humidity 90    
Minimum Humidity 44    
Precipitation  
Precipitation 0.00 in - - ()
Sea Level Pressure  
Sea Level Pressure 30.24 in    
Wind  
Wind Speed 9 mph (NW)    
Max Wind Speed 14 mph    
Max Gust Speed 24 mph    
Visibility 10 miles    
Events      
Averages and records for this station are not official NWS values.
T = Trace of Precipitation, MM = Missing Value Source: NWS Daily Summary

Daily Weather History Graph

Daily Weather History Graph

Search for Another Location

Airport or City:

Trip Planner

Search our weather history database for the weather conditions in past years. The results will help you decide how hot, cold, wet, or windy it might be!

Date:

Astronomy

Oct. 06, 2012 Rise Set
Actual Time 7:21 AM CDT 6:46 PM CDT
Civil Twilight 6:51 AM CDT 7:15 PM CDT
Nautical Twilight 6:17 AM CDT 7:49 PM CDT
Astronomical Twilight 5:42 AM CDT 8:23 PM CDT
Moon 10:49 PM CDT (10/6) 1:28 PM CDT (10/6)
Length of Visible Light 12h 23m
Length of Day
11h 25m
Waning Gibbous, 65% of the Moon is Illuminated
Oct 6
Waning Gibbous
Oct 8
Last Quarter
Oct 15
New
Oct 21
First Quarter
Oct 29
Full

Hourly Weather History & Observations

Time (CDT) Temp. Windchill Dew Point Humidity Pressure Visibility Wind Dir Wind Speed Gust Speed Precip Events Conditions
12:14 AM 36.0 °F 27.1 °F 28.0 °F 73% 30.17 in 10.0 mi NW 13.8 mph 21.9 mph N/A   Overcast
12:34 AM 35.8 °F 26.9 °F 28.2 °F 74% 30.17 in 10.0 mi NW 13.8 mph 17.3 mph N/A   Overcast
12:54 AM 36.0 °F 28.5 °F 28.4 °F 74% 30.17 in 10.0 mi NW 10.4 mph 24.2 mph N/A   Overcast
1:13 AM 36.0 °F 28.5 °F 28.4 °F 74% 30.17 in 10.0 mi NW 10.4 mph 16.1 mph N/A   Overcast
1:34 AM 35.8 °F 28.3 °F 28.8 °F 76% 30.17 in 10.0 mi NW 10.4 mph 16.1 mph N/A   Overcast
1:54 AM 36.0 °F 28.5 °F 29.1 °F 76% 30.17 in 10.0 mi NW 10.4 mph 17.3 mph N/A   Overcast
2:14 AM 36.1 °F 29.9 °F 29.3 °F 76% 30.17 in 10.0 mi WNW 8.1 mph - N/A   Overcast
2:34 AM 35.8 °F 28.3 °F 29.3 °F 77% 30.17 in 10.0 mi NW 10.4 mph - N/A   Overcast
2:54 AM 35.8 °F 28.8 °F 29.3 °F 77% 30.18 in 10.0 mi NW 9.2 mph 16.1 mph N/A   Overcast
3:14 AM 35.8 °F 27.3 °F 29.3 °F 77% 30.18 in 10.0 mi NW 12.7 mph 17.3 mph N/A   Overcast
3:34 AM 35.6 °F 28.0 °F 29.5 °F 78% 30.18 in 10.0 mi NW 10.4 mph 18.4 mph N/A   Overcast
3:54 AM 35.6 °F 28.0 °F 29.8 °F 80% 30.18 in 10.0 mi NW 10.4 mph - N/A   Overcast
4:14 AM 35.1 °F 27.4 °F 30.0 °F 82% 30.18 in 10.0 mi NW 10.4 mph 18.4 mph N/A   Mostly Cloudy
4:34 AM 34.7 °F 28.1 °F 30.0 °F 83% 30.19 in 10.0 mi NW 8.1 mph - N/A   Scattered Clouds
4:54 AM 34.9 °F 27.7 °F 30.0 °F 82% 30.19 in 10.0 mi NW 9.2 mph - N/A   Mostly Cloudy
5:14 AM 34.7 °F 27.5 °F 30.0 °F 83% 30.20 in 10.0 mi NW 9.2 mph - N/A   Mostly Cloudy
5:34 AM 34.7 °F 28.1 °F 30.0 °F 83% 30.20 in 10.0 mi NW 8.1 mph - N/A   Overcast
5:54 AM 34.0 °F 26.0 °F 30.0 °F 85% 30.21 in 10.0 mi NW 10.4 mph - N/A   Mostly Cloudy
6:14 AM 33.8 °F 26.4 °F 30.0 °F 86% 30.21 in 10.0 mi NW 9.2 mph - N/A   Mostly Cloudy
6:34 AM 34.7 °F 25.9 °F 30.0 °F 83% 30.22 in 10.0 mi NW 12.7 mph 17.3 mph N/A   Overcast
6:54 AM 34.7 °F 27.5 °F 30.0 °F 83% 30.23 in 10.0 mi NW 9.2 mph 16.1 mph N/A   Mostly Cloudy
7:14 AM 33.8 °F 27.0 °F 29.8 °F 85% 30.23 in 10.0 mi NW 8.1 mph - N/A   Scattered Clouds
7:34 AM 32.4 °F 26.0 °F 29.7 °F 90% 30.24 in 10.0 mi NW 6.9 mph - N/A   Scattered Clouds
7:54 AM 33.4 °F 28.1 °F 30.2 °F 88% 30.24 in 10.0 mi NW 5.8 mph - N/A   Mostly Cloudy
8:34 AM 35.4 °F 28.4 °F 30.6 °F 82% 30.26 in 10.0 mi NW 9.2 mph - N/A   Overcast
8:54 AM 34.3 °F 27.0 °F 29.8 °F 84% 30.27 in 10.0 mi NW 9.2 mph - N/A   Overcast
9:14 AM 34.7 °F 28.1 °F 29.7 °F 82% 30.28 in 10.0 mi NNW 8.1 mph - N/A   Mostly Cloudy
9:34 AM 35.6 °F 27.1 °F 28.6 °F 76% 30.29 in 10.0 mi NNW 12.7 mph 18.4 mph N/A   Scattered Clouds
9:54 AM 38.5 °F 31.1 °F 29.3 °F 70% 30.29 in 10.0 mi NW 11.5 mph 18.4 mph N/A   Mostly Cloudy
10:14 AM 36.1 °F 28.2 °F 28.8 °F 75% 30.30 in 10.0 mi NNW 11.5 mph 16.1 mph N/A   Overcast
10:34 AM 36.9 °F 28.7 °F 25.2 °F 63% 30.30 in 10.0 mi NNW 12.7 mph 19.6 mph N/A   Overcast
10:54 AM 37.6 °F 30.5 °F 26.1 °F 63% 30.31 in 10.0 mi NW 10.4 mph - N/A   Overcast
11:14 AM 38.3 °F 30.5 °F 24.4 °F 57% 30.31 in 10.0 mi NNW 12.7 mph 18.4 mph N/A   Overcast
11:34 AM 37.8 °F 30.2 °F 24.8 °F 60% 30.31 in 10.0 mi NNW 11.5 mph 17.3 mph N/A   Overcast
11:54 AM 38.5 °F 30.7 °F 24.6 °F 58% 30.31 in 10.0 mi NNW 12.7 mph - N/A   Overcast
12:14 PM 39.4 °F 33.2 °F 25.3 °F 57% 30.31 in 10.0 mi NNW 9.2 mph 17.3 mph N/A   Overcast
12:34 PM 39.4 °F 32.3 °F 24.8 °F 56% 30.31 in 10.0 mi NNW 11.5 mph - N/A   Overcast
12:54 PM 39.7 °F 32.7 °F 24.1 °F 54% 30.30 in 10.0 mi NNW 11.5 mph 17.3 mph N/A   Overcast
1:13 PM 40.1 °F 33.6 °F 24.1 °F 53% 30.30 in 10.0 mi NW 10.4 mph - N/A   Overcast
1:34 PM 39.9 °F 33.4 °F 25.0 °F 55% 30.29 in 10.0 mi NNW 10.4 mph - N/A   Overcast
1:54 PM 42.3 °F 37.9 °F 24.3 °F 49% 30.28 in 10.0 mi NNW 6.9 mph - N/A   Mostly Cloudy
2:14 PM 44.2 °F 39.7 °F 23.7 °F 44% 30.27 in 10.0 mi NNW 8.1 mph - N/A   Mostly Cloudy
2:34 PM 41.0 °F 35.8 °F 24.4 °F 52% 30.27 in 10.0 mi WNW 8.1 mph - N/A   Overcast
2:54 PM 41.2 °F 37.3 °F 24.6 °F 52% 30.26 in 10.0 mi NW 5.8 mph - N/A   Overcast
3:14 PM 42.1 °F 36.6 °F 25.0 °F 51% 30.26 in 10.0 mi NW 9.2 mph - N/A   Overcast
3:34 PM 42.6 °F 39.0 °F 22.1 °F 44% 30.26 in 10.0 mi North 5.8 mph - N/A   Overcast
3:54 PM 42.1 °F 36.6 °F 22.8 °F 46% 30.25 in 10.0 mi NW 9.2 mph - N/A   Overcast
4:14 PM 42.4 °F 37.5 °F 23.0 °F 46% 30.25 in 10.0 mi North 8.1 mph - N/A   Overcast
4:34 PM 42.8 °F 38.6 °F 23.5 °F 47% 30.24 in 10.0 mi NNW 6.9 mph - N/A   Overcast
4:54 PM 42.8 °F 39.3 °F 24.3 °F 48% 30.24 in 10.0 mi WNW 5.8 mph - N/A   Overcast
5:14 PM 43.0 °F 38.8 °F 25.0 °F 49% 30.24 in 10.0 mi NW 6.9 mph - N/A   Overcast
5:34 PM 43.5 °F 38.3 °F 24.1 °F 46% 30.24 in 10.0 mi NNW 9.2 mph - N/A   Overcast
5:54 PM 42.4 °F 38.1 °F 24.1 °F 48% 30.24 in 10.0 mi NNW 6.9 mph - N/A   Overcast
6:14 PM 42.6 °F 38.4 °F 23.7 °F 47% 30.24 in 10.0 mi NNW 6.9 mph - N/A   Mostly Cloudy
6:34 PM 42.3 °F 37.9 °F 23.0 °F 47% 30.24 in 10.0 mi NNW 6.9 mph - N/A   Overcast
6:54 PM 40.8 °F 36.9 °F 22.8 °F 49% 30.24 in 10.0 mi NNW 5.8 mph - N/A   Mostly Cloudy
7:14 PM 39.6 °F 35.4 °F 22.5 °F 50% 30.24 in 10.0 mi NNW 5.8 mph - N/A   Scattered Clouds
7:34 PM 37.8 °F 35.3 °F 23.0 °F 55% 30.24 in 10.0 mi NW 3.5 mph - N/A   Scattered Clouds
7:54 PM 34.7 °F - 23.9 °F 65% 30.25 in 10.0 mi Calm Calm - N/A   Clear
8:14 PM 32.5 °F - 24.6 °F 73% 30.25 in 10.0 mi Calm Calm - N/A   Scattered Clouds
8:34 PM 32.0 °F - 23.9 °F 72% 30.25 in 10.0 mi Calm Calm - N/A   Clear
8:54 PM 31.6 °F - 23.5 °F 72% 30.25 in 10.0 mi Calm Calm - N/A   Clear
9:14 PM 30.2 °F - 24.3 °F 79% 30.25 in 10.0 mi Calm Calm - N/A   Clear
9:34 PM 29.7 °F - 24.8 °F 82% 30.25 in 10.0 mi Calm Calm - N/A   Clear
9:54 PM 29.3 °F 25.6 °F 25.0 °F 84% 30.25 in 10.0 mi WSW 3.5 mph - N/A   Clear
10:14 PM 29.8 °F 26.3 °F 24.1 °F 79% 30.25 in 10.0 mi West 3.5 mph - N/A   Clear
10:34 PM 29.3 °F 25.6 °F 24.1 °F 81% 30.25 in 10.0 mi West 3.5 mph - N/A   Clear
10:54 PM 29.3 °F 25.6 °F 24.3 °F 81% 30.25 in 10.0 mi West 3.5 mph - N/A   Clear
11:14 PM 30.9 °F 27.5 °F 24.4 °F 77% 30.25 in 10.0 mi West 3.5 mph - N/A   Clear
11:34 PM 28.4 °F 24.6 °F 23.5 °F 82% 30.24 in 10.0 mi West 3.5 mph - N/A   Clear
11:54 PM 27.5 °F 23.6 °F 23.0 °F 83% 30.23 in 10.0 mi West 3.5 mph - N/A   Clear